MST,Max TemperatureF,Mean TemperatureF,Min TemperatureF,Max Dew PointF,MeanDew PointF,Min DewpointF,Max Humidity, Mean Humidity, Min Humidity, Max Sea Level PressureIn, Mean Sea Level PressureIn, Min Sea Level PressureIn, Max VisibilityMiles, Mean VisibilityMiles, Min VisibilityMiles, Max Wind SpeedMPH, Mean Wind SpeedMPH, Max Gust SpeedMPH,PrecipitationIn, CloudCover, Events, WindDirDegrees
2013-1-1,53,40,28,28,22,18,69,50,26,30.28,30.21,30.15,10,10,8,12,5,,0.00,2,,13
2013-1-2,60,46,33,23,15,10,52,31,14,30.17,30.09,30.01,10,10,5,12,6,,0.00,1,,331
2013-1-3,62,47,32,16,10,7,51,24,11,30.21,30.11,30.04,10,10,10,17,8,22,0.00,0,,9
2013-1-4,57,45,33,25,16,10,44,31,18,30.31,30.25,30.19,10,10,7,18,8,29,0.00,0,,49
2013-1-5,59,44,28,23,18,14,59,39,21,30.35,30.26,30.20,10,10,8,10,6,,0.00,0,,27
2013-1-6,62,47,32,27,21,18,60,38,19,30.19,30.06,29.93,10,10,8,13,5,,0.00,3,,59
2013-1-7,60,48,35,30,23,19,65,42,22,29.98,29.92,29.88,10,10,8,8,3,,0.00,1,,278
2013-1-8,66,50,35,21,17,14,48,27,14,30.10,30.01,29.91,10,10,5,13,7,,0.00,0,,315
2013-1-9,69,53,37,32,22,18,53,34,15,30.20,30.09,29.99,10,10,5,12,5,,0.00,0,,64
2013-1-10,57,47,37,32,25,19,61,41,27,29.98,29.88,29.80,10,9,4,23,7,28,0.00,3,,143
2013-1-11,51,40,30,25,13,0,56,33,13,30.13,30.03,29.93,10,10,5,15,8,21,0.00,0,,262
2013-1-12,50,37,24,14,5,-2,59,29,13,30.13,30.06,30.00,10,10,7,16,5,22,0.00,1,,309
2013-1-13,48,36,23,12,2,-2,43,28,13,30.18,30.10,30.05,10,10,8,13,6,,0.00,2,,319
2013-1-14,44,34,23,10,1,-2,43,26,17,30.28,30.19,30.08,10,10,8,15,6,,0.00,0,,280
2013-1-15,50,38,26,3,-3,-8,31,19,9,30.45,30.37,30.28,10,10,7,15,8,,0.00,0,,320
2013-1-16,50,40,32,12,7,3,41,31,19,30.41,30.39,30.36,10,10,8,10,5,,0.00,0,,3
2013-1-17,,,,,,,,,,,,,,,,,,,,,,
2013-1-18,60,53,46,23,19,18,34,26,23,30.14,30.12,30.10,10,9,5,12,6,,0.00,0,,338
2013-1-19,73,55,37,23,19,18,45,25,13,30.25,30.16,30.12,10,10,5,9,6,,0.00,0,,342
2013-1-20,73,56,39,28,17,12,42,25,10,30.18,30.10,30.02,10,10,5,12,6,,0.00,0,,324
2013-1-21,75,58,42,18,11,7,27,17,8,30.13,30.06,30.02,10,10,9,12,6,,0.00,0,,327
2013-1-22,77,59,41,32,16,10,33,20,9,30.18,30.11,30.06,10,9,3,10,6,,0.00,0,,2
2013-1-23,77,60,44,28,23,19,39,26,12,30.19,30.12,30.07,10,10,5,18,6,21,0.00,2,,39
2013-1-24,64,58,53,55,43,27,100,60,27,30.25,30.17,30.11,10,10,5,9,4,,0.01,7,,354
2013-1-25,73,62,50,59,53,45,100,79,36,30.17,30.07,29.97,10,10,7,14,5,,0.00,4,,19
2013-1-26,59,57,55,59,57,55,100,100,100,29.99,29.94,29.89,10,6,1,13,5,,0.90,8,,184
2013-1-27,64,60,57,64,58,55,100,97,77,30.00,29.95,29.90,10,9,3,15,4,18,0.06,7,,186
2013-1-28,57,50,41,57,40,30,100,68,41,30.05,29.98,29.91,10,10,2,15,9,18,0.07,5,,245
2013-1-29,57,44,32,41,32,23,100,70,27,30.22,30.11,30.05,10,10,10,21,6,25,0.00,0,,289
2013-1-30,59,47,35,43,34,21,100,66,23,30.37,30.28,30.22,10,10,9,13,6,,0.00,0,,48
2013-1-31,64,50,35,48,40,36,100,78,37,30.26,30.19,30.11,10,10,5,9,5,,0.00,0,,336